Regional Weather Roundup
Issued by NWS Burlington, VT

Home | Current Version | Previous Version | Text Only | Print | Product List | Glossary On
Versions: 1 2 3 4 5 6 7 8 9 10 11 12 13 14 15 16 17 18 19 20 21 22 23 24 25 26 27 28 29 30 31 32 33 34 35 36 37 38 39 40 41 42 43 44 45 46 47 48 49 50
000
ASUS41 KBTV 240110
RWRBTV
VERMONT REGIONAL WEATHER ROUNDUP
NATIONAL WEATHER SERVICE BURLINGTON VT
900 PM EDT SUN JUL 23 2017

NOTE: "FAIR" INDICATES FEW OR NO CLOUDS BELOW 12,000 FEET WITH NO
SIGNIFICANT WEATHER AND/OR OBSTRUCTIONS TO VISIBILITY.

* THESE REPORTS ARE NOT UNDER NWS QUALITY CONTROL AND/OR DO NOT
  REPORT WEATHER SUCH AS PRECIPITATION AND FOG.

VTZ001>019-240200-
_____VERMONT_____


CITY           SKY/WX    TMP DP  RH WIND       PRES   REMARKS
BURLINGTON     MOCLDY    71  53  52 N3        29.88R
MONTPELIER     MOCLDY    66  60  81 CALM      29.94R
MORRISVILLE    PTCLDY    61  54  77 CALM      29.92R
ST. JOHNSBURY*   N/A     69  55  60 MISG      29.89R
LYNDONVILLE*   FAIR      64  50  60 N8        29.93S
MIDDLEBURY*    FAIR      64  61  88 CALM      29.88R
RUTLAND*       CLOUDY    69  61  75 E6        29.89R
SPRINGFIELD    CLOUDY    68  61  78 CALM      29.90R
HIGHGATE*      FAIR      66  47  51 NE5       29.89S
NEWPORT*       FAIR      63  49  59 N7        29.93R
BENNINGTON     CLOUDY    72  59  63 N5        29.87R
SUTTON*          N/A     59 N/A N/A MISG        N/A

_____LAKE CHAMPLAIN_____


CITY           SKY/WX    TMP DP  RH WIND       PRES   REMARKS
BURTON ISLAND*   N/A     70  50  49 E1          N/A
COLCHESTER RF*   N/A     72  55  56 N9          N/A
DIAMOND ISL*     N/A     72  52  49 NW16        N/A

$$

NYZ007-026>031-035-052-083-087-240200-
_____NORTHERN NEW YORK_____


CITY           SKY/WX    TMP DP  RH WIND       PRES   REMARKS
PLATTSBURGH    CLOUDY    69  49  48 N8        29.89R
SARANAC LAKE   CLOUDY    63  51  65 E10       29.90R
MASSENA        CLOUDY    68  52  56 E9        29.87S
OGDENSBURG*    FAIR      67  52  59 NE6       29.85S
POTSDAM*       CLEAR     64  57  77 E7        29.86S
WATERTOWN      MOCLDY    69  59  70 NE13      29.79S
FT DRUM        CLOUDY    69  57  65 NE10      29.80S
ALBANY         CLOUDY    75  62  64 SE5       29.83R
GLENS FALLS    CLOUDY    70  60  70 NE5       29.86R

$$
NHZ002-005-011-240200-
_____NEW HAMPSHIRE_____


CITY           SKY/WX    TMP DP  RH WIND       PRES   REMARKS
LEBANON        CLOUDY    69  62  78 S3        29.89R
KEENE          PTCLDY    68  56  65 S7        29.91R
MT WASHINGTON  PTCLDY    46  45  93 CALM        N/A
PLYMOUTH       FAIR      69  58  68 CALM      29.90R
WHITEFIELD     CLEAR     62  55  77 CALM      29.92R

$$

_____REGIONAL QUEBEC LOCATIONS_____


CITY           SKY/WX    TMP DP  RH WIND       PRES   REMARKS
MONTREAL       MOCLDY    70  46  43 E12       29.89R
QUEBEC CITY    PTCLDY    64  50  59 W8        29.91R
SHERBROOKE     CLEAR     61  48  63 N5        29.93R

_____REGIONAL ONTARIO LOCATIONS_____


CITY           SKY/WX    TMP DP  RH WIND       PRES   REMARKS
OTTAWA         MOCLDY    64  52  63 NE8       29.88R

______KEY______
VSB  - VISIBILITY IN MILES
WCI  - WIND CHILL INDEX
HX   - HEAT INDEX
$$
NNNN




USA.gov is the U.S. government's official web portal to all federal, state and local government web resources and services.